GALAXY 30 (G-30)

Last updated on Tue Jul 01 2025 00:02:48 GMT+0000 (Coordinated Universal Time)

1 46114U 20056C 25181.57965132 .00000036 00000+0 00000+0 0 9991 2 46114 0.0187 33.6325 0001950 64.4210 264.4892 1.00273017 17877
UTC large
Height (km)
Speed (km/s)
/
Latitude / Longitude
Inclination (degrees)
Orbital Period (minutes)
Azimuth
Elevation
Range (km)
Doppler Factor

Next 0 passes for location: London (51.5072 / 0.1276)

Sorry there are no passes over London.